Location: Newark
(44.4156°N, 12.1972°E)
Time: 19:31:28
(UTC+00:00)

STARLINK-1104 - Pass Details

Date: 30 January 2020
Orbit: 532 x 534 km, 53.0° (Epoch: 18 February)

Event Time Altitude Azimuth Distance (km) Brightness Sun altitude
Rises 17:27:22 0° 304° (NW) 2,659 7.8 -12.8°
Reaches altitude 10° 17:29:37 10° 308° (NW) 1,765 6.8 -13.2°
Maximum altitude 17:33:35 63° 30° (NNE) 585 3.5 -13.9°
Enters shadow 17:36:01 22° 106° (ESE) 1,174 4.8 -14.3°
